Location: Betra
(48.4113°N, 8.6634°E)
Time: 17:53:54
(UTC+00:00)

Cosmos 2221 Rocket - Pass Details

Date: 23 May 2024
Orbit: 617 x 646 km, 82.5° (Epoch: 16 June)

Event Time Altitude Azimuth Distance (km) Brightness Sun altitude
Exits shadow 02:28:25 - 183° (S) 2,464 6.2 -9.4°
Reaches altitude 10° 02:29:28 10° 183° (S) 2,040 5.8 -9.3°
Maximum altitude 02:34:00 78° 97° (E) 666 3.8 -8.7°
Drops below altitude 10° 02:38:33 10° 12° (NNE) 2,048 7.2 -8.2°
Sets 02:40:48 0° 11° (NNE) 2,959 8.1 -7.9°
